Find Starlink 32369

NORAD ID: 60917 Int'l Des: 2024-154 Owner: SPXS Country: US Constellation: starlink operational
LEOCIRCULAR

当前视图

正在加载3D地球...

About Starlink 32369

Starlink 32369 (NORAD 60917) is a starlink constellation satellite (v2 mini) launched Aug 31, 2024 by SPXS of US. It operates in LEO, CIRCULAR orbit with a mass of 730.00 kg.

关于 Starlink 32369

正在加载描述...

即将过境

Passes for default location (London). Set your location on the main map for personalized predictions.

高度历史

Loading altitude history...

两行轨道根数

1 60917U 24154Q 26170.28400645 -.00001812 00000-0 -46634-4 0 9995
2 60917 53.1597 171.6523 0001139 72.2329 287.8796 15.31694115101891
Epoch: Jun 19, 2026 • Age: 28 hours

当前状态

高度 470.5 km
速度 7.63 km/s
星下点 13.24°N, 101.44°E
发射日期 Aug 31, 2024
运行时间 1.8 years
类型 internet

技术详情

分类 Payload
质量 730.00 kg
干质量 700.00 kg
总质量 730.00 kg
长度 0.30 m
直径 4.10 m
跨度 29.00 m
形状 Box + pan
制造商 SPXS
平台类型 Starlink V2M
阶段状态 In Orbit
所有者/国家 SPXS/US

Most Searched